This is the latest recevied weather packets stored in our database for station/object S51UL-6. If no packets are shown the sender has not sent any weather packets the latest 10 day(s).
| Time | Temp. | Humidity | Pressure | Rain* | Wind** | Luminosity | Snow |
|---|---|---|---|---|---|---|---|
| 1788267999 | 28.89° C | 45% | 1021 hPa | 16 mm | - | - | - |
| 1788267695 | 28.89° C | 44% | 1021.2 hPa | 17.53 mm | - | - | - |
| 1788267396 | 29.44° C | 41% | 1021.1 hPa | 13.46 mm | - | - | - |
| 1788266197 | 30.56° C | 44% | 1021.1 hPa | 6.6 mm | - | - | - |
| 1788265296 | 31.11° C | 44% | 1021.2 hPa | 8.13 mm | - | - | - |
| 1788264996 | 31.11° C | 46% | 1021.4 hPa | 8.13 mm | - | - | - |
| 1788264696 | 30.56° C | 46% | 1021.4 hPa | 8.13 mm | - | - | - |
| 1788264096 | 31.11° C | 44% | 1021.5 hPa | 8.13 mm | - | - | - |
| 1788263496 | 31.11° C | 45% | 1021.7 hPa | 8.89 mm | - | - | - |
| 1788262897 | 30.56° C | 45% | 1021.8 hPa | 9.91 mm | - | - | - |
| 1788262597 | 30.56° C | 45% | 1021.9 hPa | 10.41 mm | - | - | - |
| 1788262296 | 30.56° C | 44% | 1021.9 hPa | 6.1 mm | - | - | - |
| 1788261396 | 32.22° C | 44% | 1021.8 hPa | 6.6 mm | - | - | - |
| 1788261099 | 32.22° C | 44% | 1022.1 hPa | 8.13 mm | - | - | - |
| 1788260797 | 31.67° C | 45% | 1022.2 hPa | 8.13 mm | - | - | - |
| 1788260498 | 31.67° C | 48% | 1022.1 hPa | 7.62 mm | - | - | - |
| 1788260197 | 31.67° C | 50% | 1022.1 hPa | 8.89 mm | - | - | - |
| 1788259598 | 29.44° C | 52% | 1022.2 hPa | 7.11 mm | - | - | - |
| 1788259297 | 28.89° C | 52% | 1022.1 hPa | 11.94 mm | - | - | - |
| 1788258997 | 28.33° C | 55% | 1022.2 hPa | 15.49 mm | - | - | - |
| 1788258697 | 27.78° C | 56% | 1022.2 hPa | 14.48 mm | - | - | - |
| 1788258098 | 26.67° C | 58% | 1022.3 hPa | 17.02 mm | - | - | - |
| 1788257197 | 26.11° C | 62% | 1022.3 hPa | 15.49 mm | - | - | - |
| 1788256599 | 26.11° C | 67% | 1022.4 hPa | 12.45 mm | - | - | - |
| 1788255098 | 24.44° C | 72% | 1022.5 hPa | 2.54 mm | - | - | - |
* Rain latest hour (hover to see other rain measurements)
** Current wind speed in m/s (hover to see current wind gust speed)